Time,TemperatureF,DewpointF,PressureIn,WindDirection,WindDirectionDegrees,WindSpeedMPH,WindSpeedGustMPH,Humidity,HourlyPrecipIn,Conditions,Clouds,dailyrainin,SoftwareType,DateUTC
2013-06-08 00:12:00,64.7,64.0,29.67,WNW,294,0.0,5.0,96,0.00,,,0.00,weatherlink.com 1.10,2013-06-08 04:12:00,
2013-06-08 00:27:00,64.9,64.0,29.68,WNW,299,2.0,4.0,96,0.00,,,0.00,weatherlink.com 1.10,2013-06-08 04:27:00,
2013-06-08 00:42:00,65.0,64.0,29.67,WNW,290,1.0,4.0,96,0.00,,,0.00,weatherlink.com 1.10,2013-06-08 04:42:00,
2013-06-08 00:57:00,65.2,64.0,29.68,WNW,302,2.0,3.0,96,0.00,,,0.00,weatherlink.com 1.10,2013-06-08 04:57:00,
2013-06-08 01:12:00,65.3,64.0,29.67,WNW,293,2.0,6.0,95,0.00,,,0.00,weatherlink.com 1.10,2013-06-08 05:12:00,
2013-06-08 01:27:00,65.5,64.0,29.68,WNW,286,3.0,8.0,94,0.00,,,0.00,weatherlink.com 1.10,2013-06-08 05:27:00,
2013-06-08 01:42:00,65.7,64.0,29.68,WNW,291,2.0,4.0,93,0.00,,,0.00,weatherlink.com 1.10,2013-06-08 05:42:00,
2013-06-08 01:57:00,65.8,64.0,29.69,NW,305,3.0,4.0,92,0.00,,,0.00,weatherlink.com 1.10,2013-06-08 05:57:00,
2013-06-08 02:12:00,65.9,63.0,29.69,West,279,3.0,7.0,91,0.00,,,0.00,weatherlink.com 1.10,2013-06-08 06:12:00,
2013-06-08 02:27:00,65.8,63.0,29.70,WNW,298,1.0,8.0,90,0.00,,,0.00,weatherlink.com 1.10,2013-06-08 06:27:00,
2013-06-08 02:42:00,65.8,63.0,29.70,WNW,300,3.0,7.0,90,0.00,,,0.00,weatherlink.com 1.10,2013-06-08 06:42:00,
2013-06-08 02:57:00,65.8,63.0,29.70,West,272,2.0,7.0,89,0.00,,,0.00,weatherlink.com 1.10,2013-06-08 06:57:00,
2013-06-08 03:12:00,65.7,63.0,29.71,NW,309,2.0,4.0,90,0.00,,,0.00,weatherlink.com 1.10,2013-06-08 07:12:00,
2013-06-08 03:27:00,65.5,62.0,29.72,NW,317,1.0,5.0,89,0.00,,,0.00,weatherlink.com 1.10,2013-06-08 07:27:00,
2013-06-08 03:42:00,65.4,62.0,29.72,WNW,294,2.0,3.0,88,0.00,,,0.00,weatherlink.com 1.10,2013-06-08 07:42:00,
2013-06-08 03:57:00,65.4,61.0,29.74,WNW,297,5.0,6.0,86,0.00,,,0.00,weatherlink.com 1.10,2013-06-08 07:57:00,
2013-06-08 04:12:00,65.3,61.0,29.74,NW,305,2.0,4.0,85,0.00,,,0.00,weatherlink.com 1.10,2013-06-08 08:12:00,
2013-06-08 04:27:00,64.9,61.0,29.75,West,281,3.0,5.0,86,0.00,,,0.00,weatherlink.com 1.10,2013-06-08 08:27:00,
2013-06-08 04:42:00,64.7,61.0,29.75,NW,309,0.0,3.0,88,0.00,,,0.00,weatherlink.com 1.10,2013-06-08 08:42:00,
2013-06-08 04:57:00,64.4,61.0,29.76,NW,309,3.0,5.0,89,0.00,,,0.00,weatherlink.com 1.10,2013-06-08 08:57:00,
2013-06-08 05:12:00,64.0,60.0,29.76,WNW,301,4.0,6.0,87,0.00,,,0.00,weatherlink.com 1.10,2013-06-08 09:12:00,
2013-06-08 05:28:00,63.9,59.0,29.78,WNW,288,2.0,8.0,83,0.00,,,0.00,weatherlink.com 1.10,2013-06-08 09:28:00,
2013-06-08 05:43:00,63.9,58.0,29.79,WNW,289,0.0,5.0,82,0.00,,,0.00,weatherlink.com 1.10,2013-06-08 09:43:00,
2013-06-08 05:58:00,63.4,59.0,29.80,WNW,289,1.0,2.0,85,0.00,,,0.00,weatherlink.com 1.10,2013-06-08 09:58:00,
2013-06-08 06:13:00,62.8,59.0,29.81,WNW,289,1.0,2.0,87,0.00,,,0.00,weatherlink.com 1.10,2013-06-08 10:13:00,
2013-06-08 06:28:00,62.3,58.0,29.80,WNW,291,0.0,2.0,87,0.00,,,0.00,weatherlink.com 1.10,2013-06-08 10:28:00,
2013-06-08 06:43:00,62.3,59.0,29.81,WNW,291,0.0,0.0,89,0.00,,,0.00,weatherlink.com 1.10,2013-06-08 10:43:00,
2013-06-08 06:58:00,62.3,59.0,29.81,WNW,291,0.0,0.0,90,0.00,,,0.00,weatherlink.com 1.10,2013-06-08 10:58:00,
2013-06-08 07:13:00,62.3,60.0,29.82,WNW,291,0.0,0.0,91,0.00,,,0.00,weatherlink.com 1.10,2013-06-08 11:13:00,
2013-06-08 07:28:00,62.6,60.0,29.83,WNW,291,0.0,0.0,92,0.00,,,0.00,weatherlink.com 1.10,2013-06-08 11:28:00,
2013-06-08 07:43:00,63.3,59.0,29.83,WNW,291,0.0,1.0,87,0.00,,,0.00,weatherlink.com 1.10,2013-06-08 11:43:00,
2013-06-08 07:58:00,65.2,61.0,29.84,WNW,291,1.0,3.0,85,0.00,,,0.00,weatherlink.com 1.10,2013-06-08 11:58:00,
2013-06-08 08:13:00,67.3,60.0,29.84,West,269,2.0,6.0,78,0.00,,,0.00,weatherlink.com 1.10,2013-06-08 12:13:00,
2013-06-08 08:28:00,68.2,61.0,29.84,West,272,4.0,5.0,78,0.00,,,0.00,weatherlink.com 1.10,2013-06-08 12:28:00,
2013-06-08 08:43:00,68.4,60.0,29.85,WNW,292,4.0,9.0,75,0.00,,,0.00,weatherlink.com 1.10,2013-06-08 12:43:00,
2013-06-08 08:58:00,67.7,60.0,29.86,West,279,5.0,10.0,75,0.00,,,0.00,weatherlink.com 1.10,2013-06-08 12:58:00,
2013-06-08 09:13:00,67.6,60.0,29.87,WNW,297,1.0,6.0,77,0.00,,,0.00,weatherlink.com 1.10,2013-06-08 13:13:00,
2013-06-08 09:28:00,68.3,60.0,29.87,WNW,289,2.0,7.0,76,0.00,,,0.00,weatherlink.com 1.10,2013-06-08 13:28:00,
2013-06-08 09:43:00,68.5,60.0,29.88,WNW,284,0.0,11.0,73,0.00,,,0.00,weatherlink.com 1.10,2013-06-08 13:43:00,
2013-06-08 09:58:00,68.4,60.0,29.89,WNW,293,2.0,7.0,74,0.00,,,0.00,weatherlink.com 1.10,2013-06-08 13:58:00,
2013-06-08 10:13:00,68.3,60.0,29.89,WNW,291,2.0,7.0,75,0.00,,,0.00,weatherlink.com 1.10,2013-06-08 14:13:00,
2013-06-08 10:28:00,68.1,60.0,29.88,WNW,291,0.0,6.0,75,0.00,,,0.00,weatherlink.com 1.10,2013-06-08 14:28:00,
2013-06-08 10:43:00,68.5,60.0,29.88,WNW,288,3.0,9.0,75,0.00,,,0.00,weatherlink.com 1.10,2013-06-08 14:43:00,
2013-06-08 10:58:00,68.0,60.0,29.88,NW,313,1.0,4.0,76,0.00,,,0.00,weatherlink.com 1.10,2013-06-08 14:58:00,
2013-06-08 11:13:00,68.2,60.0,29.89,West,275,2.0,5.0,76,0.00,,,0.00,weatherlink.com 1.10,2013-06-08 15:13:00,
2013-06-08 11:28:00,68.9,61.0,29.89,West,279,4.0,5.0,76,0.00,,,0.00,weatherlink.com 1.10,2013-06-08 15:28:00,
2013-06-08 11:43:00,68.8,60.0,29.89,WSW,254,1.0,5.0,73,0.00,,,0.00,weatherlink.com 1.10,2013-06-08 15:43:00,
2013-06-08 11:58:00,69.0,60.0,29.89,WSW,246,2.0,6.0,74,0.00,,,0.00,weatherlink.com 1.10,2013-06-08 15:58:00,
2013-06-08 12:13:00,69.9,60.0,29.89,WSW,239,0.0,6.0,72,0.00,,,0.00,weatherlink.com 1.10,2013-06-08 16:13:00,
2013-06-08 12:28:00,70.4,62.0,29.90,NW,304,3.0,5.0,74,0.00,,,0.00,weatherlink.com 1.10,2013-06-08 16:28:00,
2013-06-08 12:43:00,72.2,62.0,29.90,West,277,4.0,10.0,70,0.00,,,0.00,weatherlink.com 1.10,2013-06-08 16:43:00,
2013-06-08 12:59:00,72.6,61.0,29.89,WNW,288,0.0,8.0,67,0.00,,,0.00,weatherlink.com 1.10,2013-06-08 16:59:00,
2013-06-08 13:14:00,73.2,63.0,29.89,West,272,5.0,7.0,70,0.00,,,0.00,weatherlink.com 1.10,2013-06-08 17:14:00,
2013-06-08 13:29:00,73.9,63.0,29.89,West,273,3.0,6.0,69,0.00,,,0.00,weatherlink.com 1.10,2013-06-08 17:29:00,
2013-06-08 13:44:00,74.8,62.0,29.89,WNW,282,2.0,5.0,64,0.00,,,0.00,weatherlink.com 1.10,2013-06-08 17:44:00,
2013-06-08 13:59:00,75.9,63.0,29.88,West,277,1.0,5.0,65,0.00,,,0.00,weatherlink.com 1.10,2013-06-08 17:59:00,
2013-06-08 14:14:00,76.5,62.0,29.89,WNW,286,2.0,7.0,62,0.00,,,0.00,weatherlink.com 1.10,2013-06-08 18:14:00,
2013-06-08 14:29:00,76.5,62.0,29.89,NNW,334,1.0,11.0,62,0.00,,,0.00,weatherlink.com 1.10,2013-06-08 18:29:00,
2013-06-08 14:44:00,76.8,62.0,29.88,NW,306,2.0,6.0,60,0.00,,,0.00,weatherlink.com 1.10,2013-06-08 18:44:00,
2013-06-08 14:59:00,76.9,61.0,29.88,ESE,115,1.0,5.0,59,0.00,,,0.00,weatherlink.com 1.10,2013-06-08 18:59:00,
2013-06-08 15:14:00,77.6,64.0,29.88,WNW,288,0.0,5.0,63,0.00,,,0.00,weatherlink.com 1.10,2013-06-08 19:14:00,
2013-06-08 15:29:00,78.4,63.0,29.89,West,265,0.0,8.0,60,0.00,,,0.00,weatherlink.com 1.10,2013-06-08 19:29:00,
2013-06-08 15:44:00,78.8,64.0,29.89,WSW,245,3.0,6.0,60,0.00,,,0.00,weatherlink.com 1.10,2013-06-08 19:44:00,
2013-06-08 15:59:00,78.4,64.0,29.89,WNW,290,0.0,4.0,61,0.00,,,0.00,weatherlink.com 1.10,2013-06-08 19:59:00,
2013-06-08 16:14:00,78.4,62.0,29.89,WNW,295,0.0,5.0,58,0.00,,,0.00,weatherlink.com 1.10,2013-06-08 20:14:00,
2013-06-08 16:29:00,77.8,62.0,29.89,East,101,1.0,3.0,59,0.00,,,0.00,weatherlink.com 1.10,2013-06-08 20:29:00,
2013-06-08 16:44:00,76.4,61.0,29.89,SE,142,0.0,3.0,59,0.00,,,0.00,weatherlink.com 1.10,2013-06-08 20:44:00,
2013-06-08 16:59:00,77.4,62.0,29.90,ENE,57,0.0,4.0,59,0.00,,,0.00,weatherlink.com 1.10,2013-06-08 20:59:00,
2013-06-08 17:14:00,78.1,62.0,29.90,WNW,298,0.0,3.0,59,0.00,,,0.00,weatherlink.com 1.10,2013-06-08 21:14:00,
2013-06-08 17:29:00,79.0,63.0,29.90,West,277,1.0,5.0,59,0.00,,,0.00,weatherlink.com 1.10,2013-06-08 21:29:00,
2013-06-08 17:44:00,79.3,63.0,29.91,West,273,0.0,4.0,57,0.00,,,0.00,weatherlink.com 1.10,2013-06-08 21:44:00,
2013-06-08 17:59:00,79.3,63.0,29.91,West,277,0.0,3.0,58,0.00,,,0.00,weatherlink.com 1.10,2013-06-08 21:59:00,
2013-06-08 18:14:00,78.9,62.0,29.91,NNE,26,1.0,3.0,57,0.00,,,0.00,weatherlink.com 1.10,2013-06-08 22:14:00,
2013-06-08 18:29:00,77.5,62.0,29.91,SE,138,0.0,4.0,59,0.00,,,0.00,weatherlink.com 1.10,2013-06-08 22:29:00,
2013-06-08 18:44:00,78.2,63.0,29.92,West,271,0.0,4.0,60,0.00,,,0.00,weatherlink.com 1.10,2013-06-08 22:44:00,
2013-06-08 18:59:00,78.1,62.0,29.92,NE,48,0.0,2.0,57,0.00,,,0.00,weatherlink.com 1.10,2013-06-08 22:59:00,
2013-06-08 19:14:00,76.8,62.0,29.93,ENE,67,0.0,2.0,60,0.00,,,0.00,weatherlink.com 1.10,2013-06-08 23:14:00,
2013-06-08 19:29:00,76.4,62.0,29.94,East,95,0.0,0.0,61,0.00,,,0.00,weatherlink.com 1.10,2013-06-08 23:29:00,
2013-06-08 19:44:00,76.4,62.0,29.94,East,95,0.0,0.0,62,0.00,,,0.00,weatherlink.com 1.10,2013-06-08 23:44:00,
2013-06-08 19:59:00,76.2,63.0,29.94,East,95,0.0,0.0,64,0.00,,,0.00,weatherlink.com 1.10,2013-06-08 23:59:00,
2013-06-08 20:14:00,75.7,63.0,29.95,NE,42,0.0,1.0,65,0.00,,,0.00,weatherlink.com 1.10,2013-06-09 00:14:00,
2013-06-08 20:29:00,73.9,63.0,29.95,NE,42,0.0,0.0,68,0.00,,,0.00,weatherlink.com 1.10,2013-06-09 00:29:00,
2013-06-08 20:44:00,72.2,62.0,29.95,WNW,302,0.0,2.0,70,0.00,,,0.00,weatherlink.com 1.10,2013-06-09 00:44:00,
2013-06-08 20:59:00,70.5,62.0,29.96,WNW,302,0.0,0.0,75,0.00,,,0.00,weatherlink.com 1.10,2013-06-09 00:59:00,
2013-06-08 21:14:00,68.8,62.0,29.97,WNW,302,0.0,0.0,80,0.00,,,0.00,weatherlink.com 1.10,2013-06-09 01:14:00,
2013-06-08 21:30:00,67.6,62.0,29.98,WNW,302,0.0,0.0,82,0.00,,,0.00,weatherlink.com 1.10,2013-06-09 01:30:00,
2013-06-08 21:45:00,66.5,61.0,29.99,WNW,302,0.0,0.0,83,0.00,,,0.00,weatherlink.com 1.10,2013-06-09 01:45:00,
2013-06-08 22:00:00,65.7,61.0,30.00,WNW,302,0.0,0.0,85,0.00,,,0.00,weatherlink.com 1.10,2013-06-09 02:00:00,
2013-06-08 22:15:00,65.0,61.0,30.00,WNW,302,0.0,0.0,86,0.00,,,0.00,weatherlink.com 1.10,2013-06-09 02:15:00,
2013-06-08 22:30:00,64.4,61.0,30.01,WNW,302,0.0,0.0,87,0.00,,,0.00,weatherlink.com 1.10,2013-06-09 02:30:00,
2013-06-08 22:45:00,63.8,61.0,30.02,WNW,302,0.0,0.0,89,0.00,,,0.00,weatherlink.com 1.10,2013-06-09 02:45:00,
2013-06-08 23:00:00,63.3,60.0,30.02,WNW,302,0.0,0.0,90,0.00,,,0.00,weatherlink.com 1.10,2013-06-09 03:00:00,
2013-06-08 23:15:00,62.9,60.0,30.02,WNW,302,0.0,1.0,89,0.00,,,0.00,weatherlink.com 1.10,2013-06-09 03:15:00,
2013-06-08 23:30:00,62.9,60.0,30.02,WNW,302,0.0,0.0,89,0.00,,,0.00,weatherlink.com 1.10,2013-06-09 03:30:00,
2013-06-08 23:45:00,63.0,59.0,30.03,WNW,302,0.0,0.0,88,0.00,,,0.00,weatherlink.com 1.10,2013-06-09 03:45:00,